Tracking 31027 objects as of 19-Jul-2025
HD Live streaming from Space Station
objects crossing your sky now

SCOUT G-1 R/B

Track SCOUT G-1 R/B now!
10-day predictions


NORAD ID: 19072
Int'l Code: 1988-033C
Perigee: 1,022.5 km
Apogee: 1,304.6 km
Inclination: 90.3 °
Period: 108.5 minutes
Semi major axis: 7534 km
RCS: 0.767 m2 (medium)
Launch date: April 26, 1988
Source: United States (US)
Launch site: AIR FORCE WESTERN TEST RANGE (AFWTR)

Note: This is a ROCKET BODY
Your satellite tracking list
STARLINK-32625
Track 1 satellite(s)




NASA's NSSDC Master Catalog

Two Line Element Set (TLE):
1 19072U 88033C   25199.47755991  .00000053  00000-0  94897-4 0  9993
2 19072  90.3168  11.5743 0187192 244.7704 139.4946 13.27438878802686
Source of the keplerian elements: AFSPC